Weather History for Council Bluffs, IA

Change the Weather History Date:

Tuesday, May 14, 2013

  Actual Average Record
Temperature  
Mean Temperature 78 °F -  
Max Temperature 98 °F 71 °F 98 °F (2013)
Min Temperature 59 °F 51 °F 39 °F (2004)
Cooling Degree Days 14    
Growing Degree Days 28 (Base 50)    
Moisture  
Dew Point 53 °F    
Average Humidity 46    
Maximum Humidity 94    
Minimum Humidity 17    
Precipitation  
Precipitation 0.00 in - - ()
Sea Level Pressure  
Sea Level Pressure 29.74 in    
Wind  
Wind Speed 11 mph (SSW)    
Max Wind Speed 28 mph    
Max Gust Speed 37 mph    
Visibility 10 miles    
Events      
Averages and records for this station are not official NWS values.
T = Trace of Precipitation, MM = Missing Value Source: NWS Daily Summary

Daily Weather History Graph

Daily Weather History Graph

Search for Another Location

Airport:

Trip Planner

Search our weather history database for the weather conditions in past years. The results will help you decide how hot, cold, wet, or windy it might be!

Date:

Astronomy

May. 14, 2013 Rise Set
Actual Time 6:05 AM CDT 8:34 PM CDT
Civil Twilight 5:33 AM CDT 9:05 PM CDT
Nautical Twilight 4:55 AM CDT 9:44 PM CDT
Astronomical Twilight 4:11 AM CDT 10:28 PM CDT
Moon 9:46 AM CDT (5/14) No Moon Set
Length of Visible Light 15h 31m
Length of Day
14h 28m
Waxing Crescent, 19% of the Moon is Illuminated
May 14
Waxing Crescent
May 17
First Quarter
May 24
Full
May 31
Last Quarter
Jun 8
New

Hourly Weather History & Observations

Time (CDT) Temp. Heat Index Dew Point Humidity Pressure Visibility Wind Dir Wind Speed Gust Speed Precip Events Conditions
12:15 AM 68.0 °F - 51.8 °F 56% 29.85 in 10.0 mi SSW 11.5 mph - N/A   Clear
12:35 AM 68.0 °F - 51.8 °F 56% 29.85 in 10.0 mi SSW 9.2 mph - N/A   Clear
12:55 AM 68.0 °F - 51.8 °F 56% 29.84 in 10.0 mi SSW 10.4 mph - N/A   Clear
1:15 AM 68.0 °F - 51.8 °F 56% 29.84 in 10.0 mi SSW 9.2 mph - N/A   Light Drizzle
1:35 AM 66.2 °F - 51.8 °F 60% 29.83 in 10.0 mi SSW 9.2 mph - N/A   Clear
1:55 AM 66.2 °F - 53.6 °F 64% 29.83 in 10.0 mi SSW 8.1 mph - N/A   Clear
2:15 AM 66.2 °F - 53.6 °F 64% 29.82 in 10.0 mi SSW 9.2 mph - N/A   Clear
2:35 AM 66.2 °F - 53.6 °F 64% 29.82 in 10.0 mi SSW 9.2 mph - N/A   Clear
2:55 AM 66.2 °F - 53.6 °F 64% 29.81 in 10.0 mi SW 9.2 mph - N/A   Clear
3:15 AM 66.2 °F - 53.6 °F 64% 29.81 in 10.0 mi SSW 9.2 mph - N/A   Clear
3:35 AM 64.4 °F - 55.4 °F 73% 29.81 in 10.0 mi SW 9.2 mph - N/A   Clear
3:55 AM 64.4 °F - 55.4 °F 73% 29.80 in 10.0 mi SW 6.9 mph - N/A   Clear
4:15 AM 64.4 °F - 55.4 °F 73% 29.80 in 10.0 mi SSW 8.1 mph - N/A   Clear
4:35 AM 64.4 °F - 55.4 °F 73% 29.80 in 10.0 mi SSW 6.9 mph - N/A   Clear
4:55 AM 64.4 °F - 55.4 °F 73% 29.80 in 10.0 mi SSW 6.9 mph - N/A   Clear
5:15 AM 64.4 °F - 55.4 °F 73% 29.79 in 10.0 mi SSW 5.8 mph - N/A   Clear
5:35 AM 60.8 °F - 55.4 °F 82% 29.79 in 10.0 mi South 5.8 mph - N/A   Clear
5:55 AM 62.6 °F - 55.4 °F 77% 29.79 in 10.0 mi South 5.8 mph - N/A   Clear
6:15 AM 62.6 °F - 55.4 °F 77% 29.79 in 10.0 mi South 4.6 mph - N/A   Clear
6:35 AM 59.0 °F - 55.4 °F 88% 29.79 in 10.0 mi SSE 5.8 mph - N/A   Clear
6:55 AM 59.0 °F - 57.2 °F 94% 29.79 in 10.0 mi South 5.8 mph - N/A   Clear
7:15 AM 62.6 °F - 57.2 °F 82% 29.79 in 10.0 mi South 5.8 mph - N/A   Clear
7:35 AM 64.4 °F - 59.0 °F 83% 29.79 in 10.0 mi SSE 4.6 mph - N/A   Clear
7:55 AM 66.2 °F - 59.0 °F 78% 29.79 in 10.0 mi South 5.8 mph - N/A   Clear
8:15 AM 68.0 °F - 59.0 °F 73% 29.78 in 10.0 mi South 5.8 mph - N/A   Clear
8:35 AM 69.8 °F - 59.0 °F 68% 29.78 in 10.0 mi SSW 8.1 mph - N/A   Clear
8:55 AM 71.6 °F - 60.8 °F 69% 29.78 in 10.0 mi South 8.1 mph - N/A   Clear
9:15 AM 71.6 °F - 60.8 °F 69% 29.77 in 10.0 mi SSW 6.9 mph - N/A   Clear
9:35 AM 73.4 °F - 59.0 °F 61% 29.77 in 10.0 mi SSW 8.1 mph - N/A   Clear
9:55 AM 75.2 °F - 59.0 °F 57% 29.76 in 10.0 mi SSW 9.2 mph - N/A   Clear
10:15 AM 75.2 °F - 60.8 °F 61% 29.76 in 10.0 mi SSW 8.1 mph - N/A   Clear
10:35 AM 77.0 °F - 59.0 °F 54% 29.75 in 10.0 mi SSW 11.5 mph - N/A   Clear
10:55 AM 80.6 °F 81.1 °F 59.0 °F 48% 29.75 in 10.0 mi SSW 11.5 mph - N/A   Clear
11:15 AM 82.4 °F 82.9 °F 60.8 °F 48% 29.75 in 10.0 mi SSW 11.5 mph 17.3 mph N/A   Clear
11:35 AM 86.0 °F 85.4 °F 59.0 °F 40% 29.74 in 10.0 mi South 11.5 mph - N/A   Clear
11:55 AM 87.8 °F 87.1 °F 59.0 °F 38% 29.73 in 10.0 mi SSW 15.0 mph 21.9 mph N/A   Clear
12:15 PM 89.6 °F 88.9 °F 59.0 °F 36% 29.72 in 10.0 mi SW 16.1 mph 23.0 mph N/A   Clear
12:35 PM 91.4 °F 90.7 °F 59.0 °F 34% 29.72 in 10.0 mi SSW 17.3 mph - N/A   Clear
12:55 PM 93.2 °F 92.6 °F 59.0 °F 32% 29.71 in 10.0 mi SSW 10.4 mph 18.4 mph N/A   Clear
1:15 PM 95.0 °F 92.7 °F 53.6 °F 25% 29.70 in 10.0 mi SSW 15.0 mph 23.0 mph N/A   Clear
1:35 PM 96.8 °F - 51.8 °F 22% 29.69 in 10.0 mi SSW 20.7 mph - N/A   Clear
1:55 PM 98.6 °F - 50.0 °F 19% 29.68 in 10.0 mi SW 20.7 mph 28.8 mph N/A   Clear
2:15 PM 96.8 °F - 50.0 °F 20% 29.68 in 10.0 mi SW 19.6 mph 29.9 mph N/A   Clear
2:35 PM 98.6 °F - 48.2 °F 18% 29.68 in 10.0 mi SSW 24.2 mph - N/A   Clear
2:55 PM 98.6 °F - 50.0 °F 19% 29.67 in 10.0 mi SSW 18.4 mph 28.8 mph N/A   Clear
3:15 PM 98.6 °F - 48.2 °F 18% 29.67 in 10.0 mi SSW 25.3 mph 35.7 mph N/A   Clear
3:35 PM 98.6 °F - 46.4 °F 17% 29.66 in 10.0 mi SW 21.9 mph 31.1 mph N/A   Clear
3:55 PM 98.6 °F - 46.4 °F 17% 29.65 in 10.0 mi SW 27.6 mph 34.5 mph N/A   Clear
4:15 PM 98.6 °F - 46.4 °F 17% 29.65 in 10.0 mi SW 20.7 mph 31.1 mph N/A   Clear
4:35 PM 96.8 °F - 46.4 °F 18% 29.65 in 10.0 mi SW 27.6 mph - N/A   Clear
4:55 PM 96.8 °F - 48.2 °F 19% 29.64 in 10.0 mi SSW 24.2 mph 34.5 mph N/A   Clear
5:15 PM 96.8 °F - 48.2 °F 19% 29.64 in 10.0 mi SW 26.5 mph - N/A   Clear
5:35 PM 95.0 °F - 48.2 °F 20% 29.64 in 10.0 mi SW 17.3 mph 28.8 mph N/A   Clear
5:55 PM 93.2 °F - 48.2 °F 21% 29.65 in 10.0 mi SW 19.6 mph 36.8 mph N/A   Clear
6:15 PM 93.2 °F - 46.4 °F 20% 29.66 in 10.0 mi WSW 20.7 mph 27.6 mph N/A   Clear
6:35 PM 91.4 °F - 48.2 °F 23% 29.65 in 10.0 mi SW 18.4 mph 28.8 mph N/A   Clear
6:55 PM 91.4 °F - 50.0 °F 24% 29.65 in 10.0 mi SSW 15.0 mph 23.0 mph N/A   Clear
7:15 PM 91.4 °F - 50.0 °F 24% 29.65 in 10.0 mi SW 13.8 mph - N/A   Clear
7:35 PM 89.6 °F - 50.0 °F 26% 29.65 in 10.0 mi SW 19.6 mph - N/A   Clear
7:55 PM 89.6 °F - 50.0 °F 26% 29.66 in 10.0 mi SSW 15.0 mph - N/A   Clear
8:15 PM 87.8 °F - 50.0 °F 27% 29.67 in 10.0 mi SSW 15.0 mph 20.7 mph N/A   Clear
8:35 PM 86.0 °F - 50.0 °F 29% 29.67 in 10.0 mi SSW 12.7 mph 18.4 mph N/A   Clear
8:55 PM 84.2 °F - 51.8 °F 33% 29.68 in 10.0 mi SSW 15.0 mph - N/A   Clear
9:15 PM 84.2 °F - 51.8 °F 33% 29.70 in 10.0 mi SW 12.7 mph - N/A   Clear
9:55 PM 82.4 °F 81.4 °F 53.6 °F 37% 29.73 in 10.0 mi SW 12.7 mph - N/A   Clear
10:15 PM 82.4 °F 81.4 °F 53.6 °F 37% 29.76 in 10.0 mi West 11.5 mph 18.4 mph N/A   Clear
10:35 PM 82.4 °F - 51.8 °F 35% 29.76 in 10.0 mi WSW 19.6 mph - N/A   Clear
10:55 PM 82.4 °F 81.4 °F 53.6 °F 37% 29.77 in 10.0 mi West 8.1 mph - N/A   Clear
11:15 PM 82.4 °F - 42.8 °F 25% 29.77 in 10.0 mi North 10.4 mph - N/A   Clear
11:35 PM 82.4 °F - 41.0 °F 23% 29.78 in 10.0 mi NW 6.9 mph - N/A   Clear
11:55 PM 78.8 °F - 39.2 °F 24% 29.78 in 10.0 mi NNW 4.6 mph - N/A   Clear